Вернуться в каталог

STARLINK-5348

АктивенСвязьVLEO
NORAD 56515·PAYLOAD·🇺🇸 United States

Запущен May 14, 2023 с Cape Canaveral Space Force Station

Loading…

Ближайшие Пролёты (ближайшие 24 часа)

TLE

СвежийSource: CelesTrak SupGP

Эпоха: Sep 14, 2026, 21:10 UTC

1 56515C 23065N   26257.88243056  .00027035  00000+0  97922-3 0  2571
2 56515  42.9995 223.9667 0001011 251.0213 153.9820 15.27565222    10

Отслеживайте STARLINK-5348 в реальном времени с AllMySat

Download on the App Store